Volver al catálogo

CZ-4B DEB

ActivoSSO
NORAD 38326·DEBRIS·🇨🇳 China

Lanzado Oct 6, 2010 desde Taiyuan Satellite Launch Center

Loading…

Próximos Pases (próximas 24 horas)

TLE

ActualizadoSource: Space-Track

Época: Sep 14, 2026, 14:49 UTC

1 38326U 10051H   26257.61766594  .00004441  00000-0  46013-3 0  9995
2 38326  97.6852 312.6212 0106480 307.7616  51.3990 14.86386110835255

Sigue CZ-4B DEB en tiempo real con AllMySat

Download on the App Store